Location: DARK SKY Beskydy - Park tmavé oblohy, www.darkskybeskydy.cz
(49.4926°N, 18.5016°E)
Time: 03:31:53
(UTC+01:00)

Envisat - Pass Details

Date: 04 December 2022
Orbit: 763 x 765 km, 98.2° (Epoch: 05 February)

Event Time Altitude Azimuth Distance (km) Brightness Sun altitude
Rises 03:02:17 0° 24° (NNE) 3,244 6.7 -41.4°
Reaches altitude 10° 03:05:01 10° 38° (NE) 2,312 5.9 -41.0°
Enters shadow 03:05:57 14° 45° (NE) 2,038 5.7 -40.8°
